#timestamp,LO_Frequency,Hit,StdDev 
1621159215.5,286047001.0,N
1621159235.3,286046999.5,N
1621159255.1,286047000.6,N
1621159275.9,286047001.2,N
1621159295.7,286046996.5,N
1621159315.6,286046995.7,N
1621159335.4,286046997.7,N
1621159355.2,286046997.4,N
1621159375.1,286046999.2,N
1621159376.0,286046999.2,N
1621159395.8,286046999.6,N
1621159415.7,286046997.0,N
1621159435.5,286046997.2,N
1621159455.3,286046997.4,N
1621159475.2,286046996.8,N
1621159495.0,286046997.0,N
1621159495.9,286046997.0,N
1621159515.8,286046995.5,N
1621159535.6,286046999.3,N
1621159555.4,286046998.5,N
1621159575.3,286046997.1,N
1621159595.1,286047000.8,N
1621159615.9,286047001.0,N
1621159635.7,286046998.6,N
1621159655.5,286046999.4,N
1621159675.4,286046998.7,N
1621159695.2,286047000.8,N
1621159715.1,286046998.3,N
1621159716.0,286046998.3,N
1621159735.8,286047001.0,N
1621159755.6,286046999.3,N
1621159775.5,286046996.5,N
1621159795.3,286046998.9,N
1621159815.1,286046996.5,N
1621159835.9,286046998.5,N
1621159855.7,286047000.7,N
1621159875.6,286046999.5,N
1621159895.4,286046997.8,N
1621159915.2,286046996.9,N
1621159935.1,286046996.9,N
1621159936.0,286046996.9,N
1621159955.8,286046997.5,N
1621159975.6,286046999.2,N
1621159995.5,286046999.5,N
1621160015.3,286046998.7,N
1621160035.2,286047003.2,N
1621160055.9,286047004.6,N
1621160075.7,286047012.6,Y
1621160095.6,286047012.6,P
1621160115.4,286047009.5,N
1621160135.2,286047011.9,N
1621160155.1,286047004.5,N
1621160156.0,286047004.5,N
1621160175.8,286047005.7,N
1621160195.7,286047006.0,N
1621160215.5,286047003.9,N
1621160235.3,286047003.5,N
1621160255.2,286047004.0,N
1621160275.0,286047001.7,N
1621160275.9,286047001.7,N
1621160295.7,286047001.9,N
1621160315.6,286047001.4,N
1621160335.4,286047003.8,N
1621160355.3,286047002.3,N
1621160375.1,286047000.5,N
1621160376.0,286047000.5,N
1621160395.8,286046999.7,N
1621160415.7,286046999.8,N
1621160435.5,286046998.6,N
1621160455.3,286046998.8,N
1621160475.2,286047000.7,N
1621160495.0,286046999.3,N
1621160495.9,286046999.3,N
1621160515.8,286046998.5,N
1621160535.6,286046997.2,N
1621160555.4,286046996.8,N
1621160575.3,286046995.4,N
1621160595.1,286046999.1,N
1621160615.8,286046999.0,N
1621160635.7,286046999.5,N
1621160655.5,286046997.1,N
1621160675.4,286046995.4,N
1621160695.2,286046997.3,N
1621160715.0,286046999.6,N
1621160715.9,286046999.6,N
1621160735.8,286046998.3,N
1621160755.6,286047001.0,N
1621160775.5,286046999.9,N
1621160795.3,286046996.5,N
1621160815.1,286046998.9,N
1621160835.9,286047000.2,N
1621160855.7,286047002.0,N
1621160875.5,286047000.2,N
1621160895.4,286047000.9,N
1621160915.2,286047001.4,N
1621160935.1,286047000.6,N
1621160936.0,286047000.6,N
1621160955.8,286047000.2,N
1621160975.6,286047000.7,N
1621160995.5,286046998.4,N
1621161015.3,286047000.7,N
1621161035.1,286047001.0,N
1621161055.9,286047001.6,N
1621161075.7,286047002.4,N
1621161095.6,286046998.7,N
1621161115.4,286046997.8,N
1621161135.2,286046997.1,N
1621161155.1,286046999.4,N
1621161156.0,286046999.4,N
1621161175.8,286047000.3,N
1621161195.6,286047004.4,N
1621161215.5,286046999.8,N
1621161235.3,286046998.7,N
1621161255.2,286047001.1,N
1621161275.9,286046998.1,N
1621161295.7,286047001.0,N
1621161315.6,286046998.6,N
1621161335.4,286047002.4,N
1621161355.2,286046999.7,N
1621161375.1,286047002.7,N
1621161376.0,286047002.7,N
1621161395.8,286047000.4,N
1621161415.7,286047000.8,N
1621161435.5,286047000.9,N
1621161455.3,286047002.6,N
1621161475.2,286047002.1,N
1621161495.0,286047002.8,N
1621161495.9,286047002.8,N
1621161515.8,286047000.9,N
1621161535.6,286047002.0,N
1621161555.4,286047002.5,N
1621161575.3,286047002.7,N
1621161595.1,286046999.7,N
1621161615.8,286047002.4,N
1621161635.7,286046996.5,N
1621161655.5,286046997.2,N
1621161675.3,286046996.9,N
1621161695.2,286046998.4,N
1621161715.0,286047001.2,N
1621161715.9,286047001.2,N
1621161735.8,286047002.8,N
1621161755.6,286046997.0,N
1621161775.4,286046995.5,N
1621161795.3,286046999.1,N
1621161815.1,286046998.3,N
1621161835.8,286046999.6,N
1621161855.7,286047001.0,N
1621161875.5,286047000.1,N
1621161895.4,286047000.7,N
1621161915.2,286047003.9,N
1621161935.0,286047005.5,N
1621161935.9,286047005.5,N
1621161955.8,286047005.8,N
1621161975.6,286047003.3,N
1621161995.4,286047001.6,N
1621162015.3,286047002.5,N
1621162035.1,286047004.2,N
1621162055.9,286047004.4,N
1621162075.7,286047002.8,N
1621162095.5,286047002.0,N
1621162115.4,286047004.4,N
1621162135.2,286047002.0,N
1621162155.0,286047001.1,N
1621162156.0,286047001.1,N
1621162175.8,286047000.7,N
1621162195.6,286047000.2,N
1621162215.5,286047002.6,N
1621162235.3,286047001.3,N
1621162255.1,286047001.4,N
1621162275.9,286046999.9,N
1621162295.7,286047000.7,N
1621162315.6,286047000.7,N
1621162335.4,286046998.2,N
1621162355.2,286047000.8,N
1621162375.1,286047000.7,N
1621162376.0,286047000.7,N
1621162395.8,286047000.2,N
1621162415.7,286047000.2,N
1621162435.5,286047000.0,N
1621162455.3,286047000.9,N
1621162475.2,286046998.9,N
1621162495.0,286046998.4,N
1621162495.9,286046998.4,N
1621162515.7,286047000.7,N
1621162535.6,286046999.7,N
1621162555.4,286047000.7,N
1621162575.3,286047000.4,N
1621162595.1,286046998.2,N
1621162596.0,286046998.2,N
1621162615.8,286046998.3,N
1621162635.7,286047001.1,N
1621162655.5,286047002.4,N
1621162675.3,286047001.4,N
1621162695.2,286047000.4,N
1621162715.0,286047000.9,N
1621162715.9,286047000.9,N
1621162735.8,286047000.6,N
1621162755.6,286046999.8,N
1621162775.4,286047000.8,N
1621162795.3,286046998.6,N
